�N����,����,�~����,�C��,���x,�C��,����,���ϕ���,�ő�u�ԕ���,�ő厞����,���˗�,�I�_���x,�n�����x,�ő啗���N��,DTYPE
"23/04/23","00:10",0.0,7.9,75.2,1014.9,305.7,2.0,3.4,317.1,0.00,3.8,14.6,"00:01:52",1
"23/04/23","00:20",0.0,7.7,75.9,1014.9,319.3,2.5,3.5,331.7,0.00,3.8,14.5,"00:11:28",1
"23/04/23","00:30",0.0,7.6,76.5,1014.9,302.6,1.6,2.5,323.5,0.00,3.8,14.4,"00:26:32",1
"23/04/23","00:40",0.0,7.5,77.2,1014.9,319.9,2.5,3.2,323.8,0.00,3.8,14.3,"00:38:08",1
"23/04/23","00:50",0.0,7.3,77.9,1014.5,317.4,2.2,3.7,311.5,0.00,3.7,14.2,"00:49:04",1
"23/04/23","01:00",0.0,7.3,78.4,1014.7,319.2,2.5,3.4,345.5,0.00,3.8,14.0,"00:56:32",1
"23/04/23","01:10",0.0,7.5,78.5,1014.9,300.7,1.8,3.4,323.9,0.00,4.0,14.1,"01:00:02",1
"23/04/23","01:20",0.0,7.2,79.0,1014.9,308.0,2.2,2.9,325.0,0.00,3.8,14.2,"01:10:08",1
"23/04/23","01:30",0.0,7.1,80.0,1014.9,323.4,2.2,3.2,320.6,0.00,3.9,14.0,"01:27:20",1
"23/04/23","01:40",0.0,6.9,80.9,1014.9,321.4,2.0,3.2,329.9,0.00,3.9,14.2,"01:39:52",1
"23/04/23","01:50",0.0,6.8,81.7,1014.9,311.5,2.5,3.7,311.3,0.00,3.9,13.9,"01:40:16",1
"23/04/23","02:00",0.0,6.8,82.3,1014.9,302.7,2.5,3.2,335.1,0.00,4.0,14.0,"01:56:56",1
"23/04/23","02:10",0.0,6.5,82.8,1014.5,301.2,1.7,2.8,276.6,0.00,3.8,13.9,"02:03:32",1
"23/04/23","02:20",0.0,6.5,83.3,1014.7,324.7,2.6,3.4,323.9,0.00,3.9,13.8,"02:16:54",1
"23/04/23","02:30",0.0,6.3,83.9,1014.9,310.2,2.2,2.8,315.4,0.00,3.8,13.9,"02:22:04",1
"23/04/23","02:40",0.0,6.4,84.3,1014.7,313.5,2.8,3.4,319.7,0.00,4.0,13.7,"02:35:10",1
"23/04/23","02:50",0.0,6.5,84.3,1015.2,314.6,3.0,3.6,331.2,0.00,4.1,13.6,"02:48:06",1
"23/04/23","03:00",0.0,6.6,84.3,1014.9,324.9,2.3,3.4,310.8,0.00,4.2,13.5,"02:59:50",1
"23/04/23","03:10",0.0,6.6,84.2,1014.7,309.8,2.2,3.4,335.0,0.00,4.2,13.7,"03:00:40",1
"23/04/23","03:20",0.0,6.5,84.2,1015.2,325.8,2.3,3.3,331.1,0.00,4.1,13.5,"03:12:22",1
"23/04/23","03:30",0.0,6.4,84.4,1014.7,308.9,2.2,2.6,332.8,0.00,4.0,13.5,"03:20:16",1
"23/04/23","03:40",0.0,6.3,84.6,1014.9,320.6,2.6,3.5,336.3,0.00,3.9,13.4,"03:32:08",1
"23/04/23","03:50",0.0,6.2,84.9,1014.9,312.2,2.6,3.5,322.6,0.00,3.9,13.4,"03:46:54",1
"23/04/23","04:00",0.0,6.3,85.2,1015.2,311.3,2.0,2.6,316.1,0.00,4.0,13.2,"03:51:22",1
"23/04/23","04:10",0.0,6.3,85.4,1015.2,301.5,2.3,2.7,295.2,0.00,4.1,13.4,"04:07:08",1
"23/04/23","04:20",0.0,6.2,85.5,1014.9,304.6,2.2,3.2,305.8,0.00,4.0,13.3,"04:15:22",1
"23/04/23","04:30",0.0,6.0,85.7,1014.9,311.3,1.8,3.1,315.7,0.00,3.8,13.2,"04:23:20",1
"23/04/23","04:40",0.0,6.0,86.1,1014.9,307.2,2.3,2.8,316.5,0.00,3.9,13.3,"04:37:50",1
"23/04/23","04:50",0.0,6.0,86.4,1015.2,325.9,2.0,2.9,341.3,0.00,3.9,13.2,"04:48:28",1
"23/04/23","05:00",0.0,6.2,86.5,1015.2,310.3,2.6,3.4,302.3,0.00,4.2,13.2,"04:51:42",1
"23/04/23","05:10",0.0,6.1,86.6,1015.2,313.9,2.3,2.7,313.4,0.00,4.1,13.1,"05:01:52",1
"23/04/23","05:20",0.0,6.1,86.9,1015.6,325.3,3.0,3.5,327.6,0.00,4.1,13.2,"05:17:24",1
"23/04/23","05:30",0.0,6.1,86.9,1015.9,319.2,2.8,3.7,320.9,0.00,4.1,13.1,"05:26:38",1
"23/04/23","05:40",0.0,6.0,87.0,1015.9,321.1,2.0,2.5,326.3,0.00,4.0,13.2,"05:30:54",1
"23/04/23","05:50",0.0,6.0,87.1,1015.6,319.4,2.3,2.7,331.5,0.00,4.1,12.9,"05:47:38",1
"23/04/23","06:00",0.0,6.0,87.3,1015.9,320.9,3.0,3.4,334.5,0.00,4.1,13.1,"05:55:12",1
"23/04/23","06:10",0.0,6.0,87.3,1015.9,329.4,1.8,2.8,315.4,0.00,4.1,13.0,"06:05:04",1
"23/04/23","06:20",0.0,6.0,87.7,1016.1,321.5,1.6,1.7,334.5,0.00,4.2,13.0,"06:14:08",1
"23/04/23","06:30",0.0,6.1,87.8,1015.9,317.9,2.1,3.2,312.1,0.00,4.3,12.8,"06:26:22",1
"23/04/23","06:40",0.0,6.2,87.9,1016.4,308.4,3.2,4.8,320.5,0.00,4.4,12.8,"06:37:00",1
"23/04/23","06:50",0.0,6.7,87.9,1016.4,299.6,2.8,4.4,320.4,0.01,4.9,12.8,"06:41:52",1
"23/04/23","07:00",0.0,7.2,87.5,1016.4,299.6,2.3,3.2,320.8,0.02,5.3,12.9,"06:59:36",1
"23/04/23","07:10",0.0,8.0,87.0,1016.6,313.2,1.5,2.7,326.5,0.04,6.0,12.6,"07:09:04",1
"23/04/23","07:20",0.0,8.7,85.7,1016.6,322.2,2.1,2.7,333.8,0.05,6.5,12.7,"07:18:16",1
"23/04/23","07:30",0.0,9.6,83.3,1017.1,301.7,1.7,2.6,314.7,0.07,7.0,12.8,"07:20:48",1
"23/04/23","07:40",0.0,10.0,79.0,1017.1,308.4,2.3,3.5,320.3,0.09,6.6,12.8,"07:34:56",1
"23/04/23","07:50",0.0,10.7,74.2,1017.5,300.7,2.1,3.4,307.2,0.12,6.3,12.7,"07:43:04",1
"23/04/23","08:00",0.0,11.2,68.9,1017.5,320.5,2.7,4.2,341.8,0.14,5.7,12.6,"07:59:38",1
"23/04/23","08:10",0.0,11.7,66.0,1017.8,322.6,3.4,5.6,337.6,0.17,5.6,12.7,"08:09:48",1
"23/04/23","08:20",0.0,11.9,63.1,1018.2,319.8,3.5,5.5,337.6,0.20,5.1,12.8,"08:10:08",1
"23/04/23","08:30",0.0,12.3,60.8,1018.5,328.7,3.7,5.6,330.5,0.22,5.0,12.7,"08:26:18",1
"23/04/23","08:40",0.0,12.6,57.3,1018.0,323.1,3.7,6.5,338.3,0.25,4.4,12.9,"08:34:40",1
"23/04/23","08:50",0.0,13.1,53.8,1017.8,322.0,3.7,5.9,331.5,0.27,4.0,12.8,"08:42:40",1
"23/04/23","09:00",0.0,13.6,52.4,1017.5,310.9,2.7,4.9,320.7,0.30,4.1,12.9,"08:53:04",1
"23/04/23","09:10",0.0,14.0,49.4,1017.3,326.0,3.1,5.1,339.3,0.32,3.6,12.8,"09:00:32",1
"23/04/23","09:20",0.0,14.4,47.0,1017.3,304.8,3.0,4.8,342.0,0.35,3.3,13.0,"09:11:44",1
"23/04/23","09:30",0.0,15.0,44.0,1017.3,334.3,3.1,5.4,337.0,0.37,2.9,13.0,"09:29:44",1
"23/04/23","09:40",0.0,15.2,43.0,1017.3,333.7,3.6,6.6,330.3,0.40,2.8,13.0,"09:30:48",1
"23/04/23","09:50",0.0,15.8,40.8,1017.1,327.8,2.8,5.8,340.9,0.42,2.6,13.0,"09:41:28",1
"23/04/23","10:00",0.0,16.3,40.0,1016.6,334.1,4.0,5.7,322.8,0.44,2.7,13.1,"09:52:08",1
"23/04/23","10:10",0.0,17.1,36.8,1016.8,338.4,3.5,7.2,323.9,0.46,2.3,13.0,"10:00:16",1
"23/04/23","10:20",0.0,18.1,36.1,1016.4,338.6,1.1,2.9,348.4,0.48,2.9,13.1,"10:18:24",1
"23/04/23","10:30",0.0,18.0,40.0,1016.4,163.2,2.1,4.9,131.9,0.50,4.3,13.4,"10:24:16",1
"23/04/23","10:40",0.0,18.3,36.3,1016.4,190.9,1.7,4.1,144.3,0.51,3.1,13.2,"10:35:28",1
"23/04/23","10:50",0.0,17.8,35.6,1016.4,207.9,2.5,4.9,223.9,0.53,2.4,13.4,"10:45:52",1
"23/04/23","11:00",0.0,18.4,32.5,1016.1,232.2,2.0,5.0,196.4,0.54,1.7,13.4,"10:56:08",1
"23/04/23","11:10",0.0,18.8,32.0,1016.1,127.0,1.8,4.9,127.7,0.55,1.8,13.5,"11:02:32",1
"23/04/23","11:20",0.0,19.1,32.9,1016.1,273.4,2.2,5.8,119.6,0.56,2.5,13.8,"11:16:08",1
"23/04/23","11:30",0.0,19.4,25.7,1015.6,352.3,1.8,6.0,314.3,0.58,-0.7,13.9,"11:28:40",1
"23/04/23","11:40",0.0,20.1,23.9,1015.9,11.1,2.0,6.0,109.2,0.58,-1.1,14.0,"11:39:12",1
"23/04/23","11:50",0.0,20.2,25.4,1015.9,1.2,2.5,4.8,339.9,0.59,-0.2,14.0,"11:42:08",1
"23/04/23","12:00",0.0,20.2,26.6,1015.4,346.0,2.8,5.0,326.9,0.59,0.5,14.0,"11:56:48",1
"23/04/23","12:10",0.0,20.0,23.9,1015.4,341.5,2.8,6.7,341.4,0.58,-1.2,14.3,"12:09:28",1
"23/04/23","12:20",0.0,20.6,25.2,1015.2,358.5,2.2,6.5,342.9,0.60,0.0,14.3,"12:17:52",1
"23/04/23","12:30",0.0,20.4,24.4,1015.2,340.8,2.5,6.3,316.3,0.60,-0.6,14.4,"12:24:40",1
"23/04/23","12:40",0.0,20.7,23.4,1014.7,7.4,2.3,5.8,29.7,0.61,-0.9,14.6,"12:32:32",1
"23/04/23","12:50",0.0,20.5,23.2,1014.9,353.5,3.5,6.7,341.6,0.61,-1.2,14.7,"12:46:48",1
"23/04/23","13:00",0.0,20.7,21.7,1014.9,353.7,3.5,6.7,53.8,0.61,-1.9,14.8,"12:58:32",1
"23/04/23","13:10",0.0,20.5,22.6,1015.2,341.8,4.2,8.6,347.6,0.57,-1.5,14.9,"13:02:32",1
"23/04/23","13:20",0.0,20.7,24.2,1014.5,341.0,3.9,7.0,327.8,0.57,-0.4,15.0,"13:13:36",1
"23/04/23","13:30",0.0,20.5,24.6,1014.9,343.1,4.2,7.8,342.9,0.52,-0.4,15.1,"13:24:00",1
"23/04/23","13:40",0.0,20.7,22.8,1014.7,4.2,3.0,6.0,350.2,0.53,-1.2,15.1,"13:35:20",1
"23/04/23","13:50",0.0,20.9,22.2,1014.5,355.8,2.8,6.4,349.2,0.55,-1.4,15.3,"13:41:28",1
"23/04/23","14:00",0.0,21.0,21.7,1014.7,359.5,2.6,5.5,327.6,0.54,-1.7,15.3,"13:51:52",1
"23/04/23","14:10",0.0,21.2,23.7,1014.5,345.7,2.6,6.2,352.5,0.53,-0.3,15.4,"14:08:56",1
"23/04/23","14:20",0.0,20.5,25.3,1014.5,337.6,4.9,7.9,346.4,0.51,0.0,15.7,"14:17:04",1
"23/04/23","14:30",0.0,20.4,24.6,1014.5,325.3,4.9,7.8,347.2,0.51,-0.5,15.7,"14:21:12",1
"23/04/23","14:40",0.0,20.1,25.3,1014.5,335.8,5.1,9.3,338.8,0.50,-0.3,15.9,"14:38:48",1
"23/04/23","14:50",0.0,20.0,26.2,1014.5,342.4,5.7,8.7,321.5,0.47,0.1,15.8,"14:40:08",1
"23/04/23","15:00",0.0,19.6,23.4,1014.5,337.1,5.6,9.8,325.3,0.48,-1.8,15.8,"14:59:52",1
"23/04/23","15:10",0.0,19.5,25.3,1014.7,340.7,6.4,9.8,327.9,0.46,-0.8,16.1,"15:00:40",1
"23/04/23","15:20",0.0,19.4,25.3,1014.2,338.6,5.9,9.8,328.2,0.44,-0.9,16.0,"15:11:22",1
"23/04/23","15:30",0.0,20.0,24.0,1014.5,352.4,2.8,5.9,346.5,0.41,-1.1,16.1,"15:25:20",1
"23/04/23","15:40",0.0,19.4,25.5,1014.9,348.6,4.9,11.1,341.3,0.39,-0.8,16.0,"15:31:36",1
"23/04/23","15:50",0.0,19.4,26.3,1014.5,347.8,4.9,8.6,351.5,0.36,-0.4,16.2,"15:42:32",1
"23/04/23","16:00",0.0,19.1,28.0,1014.7,346.6,4.9,10.3,336.8,0.36,0.2,16.1,"15:59:44",1
"23/04/23","16:10",0.0,18.9,27.1,1014.5,348.4,4.5,9.6,344.6,0.32,-0.4,16.1,"16:05:12",1
"23/04/23","16:20",0.0,18.4,27.3,1014.5,345.7,4.7,9.5,349.8,0.26,-0.7,16.3,"16:13:44",1
"23/04/23","16:30",0.0,18.1,28.3,1014.5,341.2,3.2,7.4,342.7,0.18,-0.5,16.2,"16:24:24",1
"23/04/23","16:40",0.0,17.4,29.0,1014.7,336.8,3.4,8.7,311.6,0.12,-0.8,16.1,"16:38:32",1
"23/04/23","16:50",0.0,16.9,30.9,1014.9,317.1,3.1,7.1,329.4,0.10,-0.3,16.1,"16:48:32",1
"23/04/23","17:00",0.0,17.1,32.7,1014.7,316.9,2.5,5.6,334.2,0.13,0.6,16.2,"16:55:52",1
"23/04/23","17:10",0.0,16.9,34.2,1014.9,326.5,2.2,5.9,331.7,0.11,1.1,16.4,"17:05:12",1
"23/04/23","17:20",0.0,16.8,37.1,1015.2,308.3,2.1,5.1,313.9,0.11,2.1,16.1,"17:15:36",1
"23/04/23","17:30",0.0,16.1,39.5,1015.4,312.6,2.6,4.2,336.1,0.06,2.4,16.0,"17:29:36",1
"23/04/23","17:40",0.0,15.4,41.0,1015.4,337.1,3.1,7.4,316.9,0.05,2.3,16.1,"17:37:10",1
"23/04/23","17:50",0.0,15.2,41.7,1015.9,318.1,3.5,6.3,314.8,0.05,2.3,15.9,"17:47:52",1
"23/04/23","18:00",0.0,14.9,41.0,1015.6,337.3,3.0,5.5,347.7,0.04,1.8,16.1,"17:52:18",1
"23/04/23","18:10",0.0,14.8,41.1,1015.4,336.3,2.8,5.2,311.8,0.04,1.8,15.9,"18:09:38",1
"23/04/23","18:20",0.0,14.3,41.9,1015.6,330.1,3.4,6.4,343.9,0.02,1.6,16.2,"18:14:42",1
"23/04/23","18:30",0.0,14.1,42.7,1015.9,323.7,3.2,5.2,349.9,0.02,1.7,16.0,"18:23:30",1
"23/04/23","18:40",0.0,13.9,43.4,1016.4,331.4,3.0,5.7,327.2,0.01,1.7,15.9,"18:38:28",1
"23/04/23","18:50",0.0,13.7,44.4,1015.9,327.3,3.5,7.1,327.0,0.00,1.8,15.8,"18:45:40",1
"23/04/23","19:00",0.0,13.5,44.6,1016.1,328.7,3.7,6.7,330.9,0.00,1.7,15.9,"18:56:10",1
"23/04/23","19:10",0.0,13.3,45.8,1016.1,324.3,4.1,9.4,315.3,0.00,1.9,15.9,"19:05:48",1
"23/04/23","19:20",0.0,13.1,46.4,1016.4,329.3,2.5,5.2,330.8,0.00,1.9,15.7,"19:17:14",1
"23/04/23","19:30",0.0,12.9,47.7,1016.1,328.9,3.0,6.3,26.1,0.00,2.1,15.6,"19:21:34",1
"23/04/23","19:40",0.0,12.8,48.6,1016.4,322.3,2.3,7.5,336.7,0.00,2.3,15.6,"19:39:56",1
"23/04/23","19:50",0.0,12.6,49.4,1016.1,317.9,2.7,5.2,330.7,0.00,2.3,15.5,"19:49:20",1
"23/04/23","20:00",0.0,12.6,49.8,1016.4,313.2,2.3,4.3,303.2,0.00,2.4,15.7,"19:53:22",1
"23/04/23","20:10",0.0,12.4,50.7,1016.6,296.8,2.2,4.5,341.8,0.00,2.5,15.3,"20:08:16",1
"23/04/23","20:20",0.0,12.4,51.2,1016.8,297.5,2.0,3.5,316.4,0.00,2.6,15.4,"20:17:02",1
"23/04/23","20:30",0.0,12.5,51.3,1017.1,293.8,3.4,6.5,337.5,0.00,2.8,15.5,"20:25:42",1
"23/04/23","20:40",0.0,12.4,52.2,1017.1,311.0,2.6,4.9,341.9,0.00,2.9,15.4,"20:34:44",1
"23/04/23","20:50",0.0,12.3,53.0,1017.3,319.3,2.1,4.7,323.5,0.00,3.0,15.3,"20:44:28",1
"23/04/23","21:00",0.0,12.2,53.2,1017.8,325.4,2.7,4.9,300.9,0.00,3.0,15.3,"20:50:08",1
"23/04/23","21:10",0.0,12.2,52.4,1018.0,320.0,2.2,6.2,340.5,0.00,2.8,15.2,"21:05:44",1
"23/04/23","21:20",0.0,12.2,51.9,1017.8,318.5,2.6,5.7,340.6,0.00,2.7,15.1,"21:15:14",1
"23/04/23","21:30",0.0,12.1,51.4,1017.8,292.9,1.8,4.0,321.4,0.00,2.4,15.2,"21:28:44",1
"23/04/23","21:40",0.0,12.0,50.9,1018.0,319.6,1.8,4.4,340.6,0.00,2.2,15.2,"21:30:24",1
"23/04/23","21:50",0.0,12.0,50.6,1017.8,311.7,3.0,5.1,317.7,0.00,2.1,15.1,"21:44:06",1
"23/04/23","22:00",0.0,12.0,50.0,1018.0,306.7,3.1,5.1,301.8,0.00,1.9,15.0,"21:56:50",1
"23/04/23","22:10",0.0,12.0,50.0,1018.0,324.4,3.0,4.4,325.1,0.00,1.9,15.0,"22:05:52",1
"23/04/23","22:20",0.0,11.9,49.1,1018.0,320.7,2.0,3.1,333.2,0.00,1.6,15.0,"22:10:22",1
"23/04/23","22:30",0.0,11.8,49.3,1018.0,304.0,2.3,4.0,318.2,0.00,1.6,14.9,"22:26:16",1
"23/04/23","22:40",0.0,11.7,49.9,1017.8,286.3,1.8,2.9,309.6,0.00,1.6,14.7,"22:37:24",1
"23/04/23","22:50",0.0,11.7,50.4,1017.8,296.9,1.7,2.4,335.3,0.00,1.8,15.0,"22:40:36",1
"23/04/23","23:00",0.0,11.7,50.6,1017.5,304.3,2.0,2.7,309.2,0.00,1.8,14.7,"22:53:42",1
"23/04/23","23:10",0.0,11.7,49.7,1017.3,308.9,1.7,2.7,334.4,0.00,1.6,14.9,"23:00:10",1
"23/04/23","23:20",0.0,11.8,49.9,1017.5,308.2,2.2,3.7,335.7,0.00,1.7,14.8,"23:12:42",1
"23/04/23","23:30",0.0,11.8,51.1,1017.8,306.9,1.8,4.5,339.1,0.00,2.1,14.7,"23:28:08",1
"23/04/23","23:40",0.0,11.9,51.8,1017.8,335.4,2.6,4.9,346.0,0.00,2.4,14.7,"23:38:14",1
"23/04/23","23:50",0.0,11.8,52.3,1017.5,309.7,2.2,2.8,320.4,0.00,2.4,14.5,"23:40:18",1
"23/04/23","24:00",0.0,11.8,53.4,1017.3,301.3,2.1,2.6,331.8,0.00,2.7,14.5,"23:59:08",1
